Time,TemperatureF,DewpointF,PressureIn,WindDirection,WindDirectionDegrees,WindSpeedMPH,WindSpeedGustMPH,Humidity,HourlyPrecipIn,Conditions,Clouds,dailyrainin,SoftwareType,DateUTC
2013-07-29 00:12:00,55.0,52.0,29.97,ESE,110,1.0,0.0,91,-99.99,,,-99.99,,2013-07-29 05:12:00,
2013-07-29 00:22:00,55.0,52.0,29.97,ESE,110,1.0,0.0,91,-99.99,,,-99.99,,2013-07-29 05:22:00,
2013-07-29 00:32:00,56.0,53.0,29.97,ESE,117,0.0,0.0,90,-99.99,,,-99.99,,2013-07-29 05:32:00,
2013-07-29 00:42:00,54.0,50.0,29.97,SSE,156,0.0,0.0,87,-99.99,,,-99.99,,2013-07-29 05:42:00,
2013-07-29 00:53:00,54.0,50.0,29.97,SSE,156,0.0,0.0,87,-99.99,,,-99.99,,2013-07-29 05:53:00,
2013-07-29 01:02:00,53.0,51.0,29.97,SSE,158,0.0,0.0,93,-99.99,,,-99.99,,2013-07-29 06:02:00,
2013-07-29 01:12:00,53.0,51.0,29.97,SSE,158,0.0,0.0,93,-99.99,,,-99.99,,2013-07-29 06:12:00,
2013-07-29 01:22:00,52.0,50.0,29.97,SSE,158,0.0,0.0,93,-99.99,,,-99.99,,2013-07-29 06:22:00,
2013-07-29 01:32:00,52.0,50.0,29.97,SSE,158,0.0,0.0,93,-99.99,,,-99.99,,2013-07-29 06:32:00,
2013-07-29 01:43:00,52.0,50.0,29.97,SSE,158,0.0,0.0,93,-99.99,,,-99.99,,2013-07-29 06:43:00,
2013-07-29 01:52:00,52.0,50.0,29.97,SSE,158,0.0,0.0,93,-99.99,,,-99.99,,2013-07-29 06:52:00,
2013-07-29 02:02:00,52.0,49.0,29.97,South,169,0.0,0.0,91,-99.99,,,-99.99,,2013-07-29 07:02:00,
2013-07-29 02:12:00,52.0,50.0,29.97,South,169,1.0,0.0,94,-99.99,,,-99.99,,2013-07-29 07:12:00,
2013-07-29 02:22:00,52.0,50.0,29.97,South,169,1.0,0.0,94,-99.99,,,-99.99,,2013-07-29 07:22:00,
2013-07-29 02:33:00,52.0,50.0,29.97,SSE,165,0.0,0.0,93,-99.99,,,-99.99,,2013-07-29 07:33:00,
2013-07-29 02:43:00,52.0,50.0,29.97,SSE,165,0.0,0.0,94,-99.99,,,-99.99,,2013-07-29 07:43:00,
2013-07-29 02:53:00,52.0,50.0,29.97,SSE,165,0.0,0.0,94,-99.99,,,-99.99,,2013-07-29 07:53:00,
2013-07-29 03:02:00,52.0,50.0,29.97,SSE,165,0.0,0.0,94,-99.99,,,-99.99,,2013-07-29 08:02:00,
2013-07-29 03:12:00,51.0,49.0,29.98,SSE,165,0.0,0.0,93,-99.99,,,-99.99,,2013-07-29 08:12:00,
2013-07-29 03:22:00,52.0,51.0,29.98,NE,46,0.0,0.0,95,-99.99,,,-99.99,,2013-07-29 08:22:00,
2013-07-29 03:33:00,52.0,51.0,29.98,NE,46,0.0,0.0,95,-99.99,,,-99.99,,2013-07-29 08:33:00,
2013-07-29 03:42:00,52.0,51.0,29.98,NE,46,1.0,0.0,95,-99.99,,,-99.99,,2013-07-29 08:42:00,
2013-07-29 03:52:00,51.0,49.0,29.98,ESE,122,0.0,0.0,94,-99.99,,,-99.99,,2013-07-29 08:52:00,
2013-07-29 04:02:00,51.0,49.0,29.98,ESE,122,0.0,0.0,94,-99.99,,,-99.99,,2013-07-29 09:02:00,
2013-07-29 04:12:00,51.0,49.0,29.98,ESE,122,0.0,0.0,94,-99.99,,,-99.99,,2013-07-29 09:12:00,
2013-07-29 04:22:00,51.0,50.0,29.98,SE,146,0.0,0.0,95,-99.99,,,-99.99,,2013-07-29 09:22:00,
2013-07-29 04:33:00,49.0,48.0,29.98,SE,146,0.0,0.0,95,-99.99,,,-99.99,,2013-07-29 09:33:00,
2013-07-29 04:43:00,49.0,48.0,29.98,SSW,197,1.0,0.0,95,-99.99,,,-99.99,,2013-07-29 09:43:00,
2013-07-29 04:53:00,49.0,48.0,29.98,ESE,107,1.0,0.0,96,-99.99,,,-99.99,,2013-07-29 09:53:00,
2013-07-29 05:04:00,49.0,48.0,29.98,ESE,107,1.0,0.0,96,-99.99,,,-99.99,,2013-07-29 10:04:00,
2013-07-29 05:14:00,49.0,48.0,29.98,South,174,0.0,0.0,96,-99.99,,,-99.99,,2013-07-29 10:14:00,
2013-07-29 05:25:00,50.0,49.0,29.98,South,174,0.0,0.0,96,-99.99,,,-99.99,,2013-07-29 10:25:00,
2013-07-29 05:37:00,49.0,48.0,29.98,South,174,0.0,0.0,96,-99.99,,,-99.99,,2013-07-29 10:37:00,
2013-07-29 05:48:00,49.0,48.0,29.98,South,174,0.0,0.0,96,-99.99,,,-99.99,,2013-07-29 10:48:00,
2013-07-29 05:53:00,49.0,48.0,29.99,South,174,0.0,0.0,96,-99.99,,,-99.99,,2013-07-29 10:53:00,
2013-07-29 06:05:00,49.0,48.0,29.99,South,174,0.0,0.0,96,-99.99,,,-99.99,,2013-07-29 11:05:00,
2013-07-29 06:15:00,50.0,49.0,29.99,SSE,167,1.0,0.0,97,-99.99,,,-99.99,,2013-07-29 11:15:00,
2013-07-29 06:24:00,50.0,49.0,29.99,SSE,167,1.0,0.0,97,-99.99,,,-99.99,,2013-07-29 11:24:00,
2013-07-29 06:36:00,50.0,49.0,29.99,SSE,167,1.0,0.0,97,-99.99,,,-99.99,,2013-07-29 11:36:00,
2013-07-29 06:44:00,50.0,49.0,29.99,SE,143,1.0,0.0,96,-99.99,,,-99.99,,2013-07-29 11:44:00,
2013-07-29 06:55:00,48.0,47.0,29.99,SSE,165,0.0,0.0,95,-99.99,,,-99.99,,2013-07-29 11:55:00,
2013-07-29 07:09:00,48.0,47.0,29.99,SSE,165,0.0,0.0,95,-99.99,,,-99.99,,2013-07-29 12:09:00,
2013-07-29 07:15:00,48.0,47.0,29.99,SSE,165,0.0,0.0,95,-99.99,,,-99.99,,2013-07-29 12:15:00,
2013-07-29 07:26:00,48.0,47.0,30.00,SSW,207,0.0,0.0,96,-99.99,,,-99.99,,2013-07-29 12:26:00,
2013-07-29 07:35:00,48.0,47.0,30.00,SSW,207,0.0,0.0,96,-99.99,,,-99.99,,2013-07-29 12:35:00,
2013-07-29 07:49:00,51.0,50.0,30.00,SW,224,1.0,0.0,97,-99.99,,,-99.99,,2013-07-29 12:49:00,
2013-07-29 07:58:00,51.0,50.0,30.00,SW,224,1.0,0.0,97,-99.99,,,-99.99,,2013-07-29 12:58:00,
2013-07-29 08:17:00,51.0,50.0,30.00,SW,224,1.0,0.0,97,-99.99,,,-99.99,,2013-07-29 13:17:00,
2013-07-29 08:57:00,59.0,55.0,30.02,SW,225,3.0,0.0,86,-99.99,,,-99.99,,2013-07-29 13:57:00,
2013-07-29 09:07:00,60.0,55.0,30.02,SSW,210,2.0,0.0,83,-99.99,,,-99.99,,2013-07-29 14:07:00,
2013-07-29 09:13:00,60.0,55.0,30.02,SSW,210,2.0,0.0,83,-99.99,,,-99.99,,2013-07-29 14:13:00,
2013-07-29 09:28:00,60.0,55.0,30.02,SSW,210,2.0,0.0,83,-99.99,,,-99.99,,2013-07-29 14:28:00,
2013-07-29 09:35:00,60.0,55.0,30.02,SSW,210,2.0,0.0,83,-99.99,,,-99.99,,2013-07-29 14:35:00,
2013-07-29 09:45:00,64.0,55.0,30.03,SSW,210,2.0,0.0,73,-99.99,,,-99.99,,2013-07-29 14:45:00,
2013-07-29 09:57:00,64.0,55.0,30.03,SSW,210,2.0,0.0,73,-99.99,,,-99.99,,2013-07-29 14:57:00,
2013-07-29 10:08:00,64.0,55.0,30.03,SSW,210,2.0,0.0,73,-99.99,,,-99.99,,2013-07-29 15:08:00,
2013-07-29 10:15:00,64.0,55.0,30.03,SSW,210,2.0,0.0,73,-99.99,,,-99.99,,2013-07-29 15:15:00,
2013-07-29 10:24:00,66.0,56.0,30.02,South,190,0.0,0.0,70,-99.99,,,-99.99,,2013-07-29 15:24:00,
2013-07-29 10:39:00,67.0,56.0,30.02,SE,127,0.0,0.0,69,-99.99,,,-99.99,,2013-07-29 15:39:00,
2013-07-29 10:46:00,67.0,56.0,30.02,SE,127,0.0,0.0,69,-99.99,,,-99.99,,2013-07-29 15:46:00,
2013-07-29 10:55:00,68.0,56.0,30.02,SSE,157,0.0,0.0,65,-99.99,,,-99.99,,2013-07-29 15:55:00,
2013-07-29 11:13:00,69.0,56.0,30.02,SE,142,2.0,0.0,64,-99.99,,,-99.99,,2013-07-29 16:13:00,
2013-07-29 11:24:00,69.0,56.0,30.02,SE,142,2.0,0.0,64,-99.99,,,-99.99,,2013-07-29 16:24:00,
2013-07-29 11:38:00,70.0,56.0,30.02,SW,230,1.0,0.0,61,-99.99,,,-99.99,,2013-07-29 16:38:00,
2013-07-29 11:55:00,71.0,56.0,30.01,ESE,105,4.0,0.0,59,-99.99,,,-99.99,,2013-07-29 16:55:00,
2013-07-29 12:08:00,71.0,55.0,30.01,SSE,153,1.0,0.0,58,-99.99,,,-99.99,,2013-07-29 17:08:00,
2013-07-29 12:13:00,72.0,56.0,30.01,SSE,156,4.0,0.0,57,-99.99,,,-99.99,,2013-07-29 17:13:00,
2013-07-29 12:24:00,72.0,56.0,30.01,SSE,156,4.0,0.0,57,-99.99,,,-99.99,,2013-07-29 17:24:00,
2013-07-29 12:40:00,72.0,56.0,30.01,SSE,156,4.0,0.0,57,-99.99,,,-99.99,,2013-07-29 17:40:00,
2013-07-29 12:56:00,72.0,55.0,30.00,ESE,108,0.0,0.0,55,-99.99,,,-99.99,,2013-07-29 17:56:00,
2013-07-29 13:06:00,73.0,57.0,30.00,SSE,150,0.0,0.0,57,-99.99,,,-99.99,,2013-07-29 18:06:00,
2013-07-29 13:15:00,74.0,56.0,29.99,SSE,150,0.0,0.0,54,-99.99,,,-99.99,,2013-07-29 18:15:00,
2013-07-29 13:27:00,74.0,55.0,29.99,SE,142,0.0,0.0,52,-99.99,,,-99.99,,2013-07-29 18:27:00,
2013-07-29 13:35:00,74.0,56.0,29.98,SSE,161,0.0,0.0,53,-99.99,,,-99.99,,2013-07-29 18:35:00,
2013-07-29 13:45:00,75.0,56.0,29.98,SE,134,0.0,0.0,51,-99.99,,,-99.99,,2013-07-29 18:45:00,
2013-07-29 13:55:00,75.0,54.0,29.98,SE,133,0.0,0.0,48,-99.99,,,-99.99,,2013-07-29 18:55:00,
2013-07-29 14:03:00,75.0,56.0,29.98,ESE,119,0.0,0.0,52,-99.99,,,-99.99,,2013-07-29 19:03:00,
2013-07-29 14:36:00,75.0,58.0,29.98,SE,127,0.0,0.0,55,-99.99,,,-99.99,,2013-07-29 19:36:00,
2013-07-29 14:45:00,76.0,57.0,29.97,East,98,0.0,0.0,52,-99.99,,,-99.99,,2013-07-29 19:45:00,
2013-07-29 14:59:00,76.0,57.0,29.97,East,98,0.0,0.0,52,-99.99,,,-99.99,,2013-07-29 19:59:00,
2013-07-29 15:15:00,76.0,57.0,29.97,SSE,147,0.0,0.0,52,-99.99,,,-99.99,,2013-07-29 20:15:00,
2013-07-29 15:24:00,76.0,56.0,29.98,SSE,158,0.0,0.0,50,-99.99,,,-99.99,,2013-07-29 20:24:00,
2013-07-29 15:35:00,76.0,56.0,29.98,SSE,158,0.0,0.0,50,-99.99,,,-99.99,,2013-07-29 20:35:00,
2013-07-29 15:47:00,76.0,57.0,29.98,South,175,0.0,0.0,51,-99.99,,,-99.99,,2013-07-29 20:47:00,
2013-07-29 15:56:00,76.0,57.0,29.98,South,175,0.0,0.0,51,-99.99,,,-99.99,,2013-07-29 20:56:00,
2013-07-29 16:05:00,76.0,57.0,29.98,South,175,0.0,0.0,51,-99.99,,,-99.99,,2013-07-29 21:05:00,
2013-07-29 16:18:00,76.0,57.0,29.98,South,175,0.0,0.0,51,-99.99,,,-99.99,,2013-07-29 21:18:00,
2013-07-29 16:24:00,77.0,59.0,29.97,SSE,155,0.0,0.0,53,-99.99,,,-99.99,,2013-07-29 21:24:00,
2013-07-29 16:49:00,76.0,55.0,29.97,ESE,107,0.0,0.0,49,-99.99,,,-99.99,,2013-07-29 21:49:00,
2013-07-29 17:00:00,77.0,53.0,29.97,ESE,115,3.0,0.0,44,-99.99,,,-99.99,,2013-07-29 22:00:00,
2013-07-29 17:16:00,77.0,53.0,29.97,ESE,115,3.0,0.0,44,-99.99,,,-99.99,,2013-07-29 22:16:00,
2013-07-29 17:25:00,77.0,55.0,29.96,SE,131,5.0,0.0,47,-99.99,,,-99.99,,2013-07-29 22:25:00,
2013-07-29 17:37:00,77.0,57.0,29.96,South,170,2.0,0.0,50,-99.99,,,-99.99,,2013-07-29 22:37:00,
2013-07-29 17:47:00,77.0,57.0,29.96,South,170,2.0,0.0,50,-99.99,,,-99.99,,2013-07-29 22:47:00,
2013-07-29 17:57:00,77.0,57.0,29.96,South,170,2.0,0.0,50,-99.99,,,-99.99,,2013-07-29 22:57:00,
2013-07-29 18:05:00,76.0,55.0,29.96,SSE,147,4.0,0.0,49,-99.99,,,-99.99,,2013-07-29 23:05:00,
2013-07-29 18:14:00,76.0,55.0,29.96,SE,132,3.0,0.0,49,-99.99,,,-99.99,,2013-07-29 23:14:00,
2013-07-29 18:26:00,76.0,57.0,29.96,SE,139,5.0,0.0,51,-99.99,,,-99.99,,2013-07-29 23:26:00,
2013-07-29 18:35:00,77.0,56.0,29.95,SE,134,4.0,0.0,49,-99.99,,,-99.99,,2013-07-29 23:35:00,
2013-07-29 18:44:00,77.0,55.0,29.95,SE,135,5.0,0.0,47,-99.99,,,-99.99,,2013-07-29 23:44:00,
2013-07-29 18:54:00,77.0,55.0,29.95,SE,135,5.0,0.0,47,-99.99,,,-99.99,,2013-07-29 23:54:00,
2013-07-29 19:07:00,76.0,55.0,29.95,SE,136,4.0,0.0,49,-99.99,,,-99.99,,2013-07-30 00:07:00,
2013-07-29 19:17:00,76.0,56.0,29.95,SSE,151,5.0,0.0,50,-99.99,,,-99.99,,2013-07-30 00:17:00,
2013-07-29 19:25:00,76.0,56.0,29.95,SSE,151,5.0,0.0,50,-99.99,,,-99.99,,2013-07-30 00:25:00,
2013-07-29 19:34:00,75.0,55.0,29.95,SE,126,0.0,0.0,49,-99.99,,,-99.99,,2013-07-30 00:34:00,
2013-07-29 19:47:00,75.0,55.0,29.95,SE,126,0.0,0.0,49,-99.99,,,-99.99,,2013-07-30 00:47:00,
2013-07-29 19:54:00,74.0,55.0,29.95,SSE,155,0.0,0.0,52,-99.99,,,-99.99,,2013-07-30 00:54:00,
2013-07-29 20:06:00,74.0,55.0,29.95,SSE,155,0.0,0.0,52,-99.99,,,-99.99,,2013-07-30 01:06:00,
2013-07-29 20:16:00,72.0,56.0,29.96,SE,134,0.0,0.0,57,-99.99,,,-99.99,,2013-07-30 01:16:00,
2013-07-29 20:23:00,71.0,56.0,29.96,SE,143,0.0,0.0,59,-99.99,,,-99.99,,2013-07-30 01:23:00,
2013-07-29 20:36:00,70.0,55.0,29.96,SE,143,0.0,0.0,59,-99.99,,,-99.99,,2013-07-30 01:36:00,
2013-07-29 20:44:00,70.0,55.0,29.96,SE,143,0.0,0.0,59,-99.99,,,-99.99,,2013-07-30 01:44:00,
2013-07-29 20:55:00,70.0,55.0,29.96,SE,131,0.0,0.0,60,-99.99,,,-99.99,,2013-07-30 01:55:00,
2013-07-29 21:05:00,70.0,56.0,29.96,East,98,0.0,0.0,61,-99.99,,,-99.99,,2013-07-30 02:05:00,
2013-07-29 21:13:00,70.0,56.0,29.96,East,98,0.0,0.0,61,-99.99,,,-99.99,,2013-07-30 02:13:00,
2013-07-29 21:24:00,70.0,56.0,29.96,SE,134,0.0,0.0,61,-99.99,,,-99.99,,2013-07-30 02:24:00,
2013-07-29 21:37:00,70.0,56.0,29.96,SE,134,0.0,0.0,61,-99.99,,,-99.99,,2013-07-30 02:37:00,
2013-07-29 21:45:00,70.0,56.0,29.97,SSE,168,0.0,0.0,61,-99.99,,,-99.99,,2013-07-30 02:45:00,
2013-07-29 21:56:00,70.0,56.0,29.97,SSE,168,0.0,0.0,61,-99.99,,,-99.99,,2013-07-30 02:56:00,
2013-07-29 22:08:00,70.0,56.0,29.97,SE,141,0.0,0.0,61,-99.99,,,-99.99,,2013-07-30 03:08:00,
2013-07-29 22:18:00,70.0,56.0,29.98,SSE,158,0.0,0.0,61,-99.99,,,-99.99,,2013-07-30 03:18:00,
2013-07-29 22:25:00,70.0,56.0,29.98,ESE,123,0.0,0.0,61,-99.99,,,-99.99,,2013-07-30 03:25:00,
2013-07-29 22:34:00,69.0,55.0,29.98,SE,139,0.0,0.0,62,-99.99,,,-99.99,,2013-07-30 03:34:00,
2013-07-29 22:44:00,69.0,55.0,29.98,SE,139,0.0,0.0,62,-99.99,,,-99.99,,2013-07-30 03:44:00,
2013-07-29 22:53:00,69.0,55.0,29.98,ESE,121,0.0,0.0,62,-99.99,,,-99.99,,2013-07-30 03:53:00,
2013-07-29 23:03:00,69.0,56.0,29.98,SE,134,0.0,0.0,63,-99.99,,,-99.99,,2013-07-30 04:03:00,
2013-07-29 23:12:00,69.0,56.0,29.98,SE,131,0.0,0.0,64,-99.99,,,-99.99,,2013-07-30 04:12:00,
2013-07-29 23:23:00,69.0,56.0,29.98,SE,131,0.0,0.0,64,-99.99,,,-99.99,,2013-07-30 04:23:00,
2013-07-29 23:33:00,68.0,56.0,29.98,SE,138,0.0,0.0,66,-99.99,,,-99.99,,2013-07-30 04:33:00,
2013-07-29 23:43:00,68.0,56.0,29.98,SE,138,0.0,0.0,66,-99.99,,,-99.99,,2013-07-30 04:43:00,
2013-07-29 23:53:00,68.0,57.0,29.97,ESE,110,0.0,0.0,67,-99.99,,,-99.99,,2013-07-30 04:53:00,